Location: B�rgermoos
(47.6500°N, 9.0667°E)
Time: 17:52:22
(UTC+00:00)

Tiros 1 - Pass Details

Date: 06 August 2021
Orbit: 630 x 663 km, 48.4° (Epoch: 20 September)

Event Time Altitude Azimuth Distance (km) Brightness Sun altitude
Rises 15:07:07 0° 217° (SW) 2,983 11.2 35.9°
Reaches altitude 10° 15:09:39 10° 207° (SSW) 2,072 10.4 35.5°
Maximum altitude 15:13:51 31° 146° (SE) 1,155 8.5 34.8°
Drops below altitude 10° 15:18:03 10° 84° (E) 2,071 9.3 34.1°
Sets 15:20:35 0° 74° (ENE) 2,980 10.0 33.7°
